Location: Bosmont
(49.7318°N, 3.8587°E)
Time: 08:22:14
(UTC+00:00)

Cosmos 1745 Rocket - Pass Details

Date: 08 February 2023
Orbit: 951 x 998 km, 83.0° (Epoch: 24 March)

Event Time Altitude Azimuth Distance (km) Brightness Sun altitude
Rises 17:48:47 0° 352° (N) 3,691 7.0 -9.7°
Reaches altitude 10° 17:51:23 10° 357° (N) 2,732 6.3 -10.2°
Maximum altitude 17:57:32 57° 76° (ENE) 1,133 4.0 -11.1°
Drops below altitude 10° 18:03:34 10° 154° (SSE) 2,685 6.1 -12.1°
Sets 18:06:06 0° 159° (SSE) 3,622 6.9 -12.5°
